Location: B?jaj?g
(11.7167°N, 92.6667°E)
Time: 16:17:00
(UTC+00:00)

SAR-Lupe-4 - Pass Details

Date: 18 September 2020
Orbit: 481 x 485 km, 98.2° (Epoch: 27 October)

Event Time Altitude Azimuth Distance (km) Brightness Sun altitude
Rises 22:38:44 0° 160° (SSE) 2,540 7.4 -15.5°
Reaches altitude 10° 22:40:49 10° 155° (SSE) 1,661 6.5 -15.0°
Maximum altitude 22:44:18 54° 77° (ENE) 590 4.3 -14.1°
Drops below altitude 10° 22:47:48 10° 359° (N) 1,662 6.3 -13.2°
Sets 22:49:53 0° 355° (N) 2,541 7.2 -12.7°
